Flag for Germany Weather past 2 weeks in Leipzig, Saxony, Germany

Now
64 °F

Drizzle. Fog.


Feels Like: 64 °F
Forecast: 57 / 83 °F
Wind: 3 mph from East

Location: Leipzig-Schkeuditz

Current Time: Jul 25, 2014 at 11:43:50 AM

Latest Report: Jul 25, 2014 at 11:20 AM


Visibility: 2 mi

Pressure: 29.95 "Hg

Humidity: 100%

Dew point: 64 °F

Location of LeipzigLocation

Historic Weather in Leipzig — Graph

°F

Leipzig temperature yesterday

Maximum temperature yesterday: 73 °F (at 4:50 PM)
Minimum temperature yesterday: 57 °F (at 4:20 AM)
Average temperature yesterday: 65 °F

Past Weeks' High & Low Weather Summary

 TemperatureHumidityPressure
High93 °F (Jul 20, 3:50 PM)100% (Jul 11, 12:50 AM)30.18 "Hg (Jul 11, 12:50 AM)
Low52 °F (Jul 12, 3:50 AM)22% (Jul 19, 6:50 PM)29.71 "Hg (Jul 10, 10:20 AM)
Average70 °F67%29.96 "Hg
* Reported Jul 10 10:20 AM — Jul 25 10:20 AM, Leipzig, Weather by CustomWeather, © 2014

Note: Actual official high and low records may vary slightly from our data, if they occured in-between our weather recording intervals... More about our weather records

Advertising

Leipzig weather history for previous 24 hours

 ConditionsComfort  
Time TempWeatherWind HumidityBarometerVisibility
10:20 AM
Jul 25
63 °FDrizzle. Fog.3 mph100%29.95 "Hg1 mi
9:50 AM63 °FDrizzle. Fog.3 mph100%29.95 "Hg1 mi
9:20 AM63 °FDrizzle. Fog.3 mph100%29.95 "Hg1 mi
8:50 AM63 °FDrizzle. Fog.5 mph100%29.95 "Hg1 mi
8:20 AM63 °FDrizzle. Fog.5 mph100%29.92 "Hg1 mi
7:50 AM63 °FDrizzle. Fog.3 mph100%29.92 "Hg1 mi
7:20 AM61 °FDrizzle. Fog.6 mph100%29.92 "Hg1 mi
6:50 AM61 °FLight rain. Fog.7 mph100%29.92 "Hg1 mi
6:20 AM61 °FLight rain. Fog.7 mph100%29.92 "Hg2 mi
5:50 AM61 °FLight rain. Fog.8 mph100%29.92 "Hg4 mi
5:20 AM61 °FLight rain. Fog.9 mph100%29.92 "Hg3 mi
4:50 AM61 °FLight rain. Fog.10 mph100%29.92 "Hg2 mi
4:20 AM61 °FLight rain. Passing clouds.9 mph100%29.92 "Hg2 mi
3:50 AM61 °FRain. Passing clouds.10 mph100%29.92 "Hg2 mi
3:20 AM61 °FRain. Passing clouds.10 mph100%29.92 "Hg2 mi
2:50 AM61 °FRain. Passing clouds.8 mph100%29.95 "Hg3 mi
2:20 AM61 °FRain. Passing clouds.8 mph100%29.95 "Hg3 mi
1:50 AM61 °FRain. Passing clouds.9 mph100%29.95 "Hg3 mi
1:20 AM61 °FLight rain. Passing clouds.10 mph100%29.95 "Hg3 mi
12:50 AM61 °FRain. Passing clouds.12 mph100%29.95 "Hg3 mi
12:20 AM61 °FRain. Passing clouds.12 mph100%29.98 "Hg3 mi
11:50 PM
Jul 24
61 °FRain. Passing clouds.12 mph100%29.98 "Hg3 mi
11:20 PM61 °FLight rain. Partly cloudy.9 mph100%29.98 "Hg3 mi
10:50 PM61 °FLight rain. Partly cloudy.8 mph100%29.98 "Hg3 mi
10:20 PM61 °FLight rain. Passing clouds.8 mph100%29.98 "Hg4 mi
9:50 PM61 °FLight rain. Partly sunny.9 mph100%29.98 "Hg3 mi
9:20 PM61 °FLight rain. Partly sunny.14 mph100%29.98 "Hg5 mi
8:50 PM63 °FLight rain. Partly sunny.10 mph100%29.98 "Hg5 mi
8:20 PM63 °FLight rain. Partly sunny.12 mph94%29.98 "Hg2 mi
7:50 PM63 °FDrizzle. Broken clouds.15 mph88%29.98 "HgN/A
7:20 PM66 °FBroken clouds.17 mph73%29.98 "HgN/A
6:50 PM70 °FBroken clouds.20 mph60%29.98 "HgN/A
6:20 PM72 °FPartly sunny.18 mph53%29.98 "HgN/A
5:50 PM72 °FPartly sunny.17 mph57%29.98 "HgN/A
5:20 PM72 °FBroken clouds.20 mph57%29.98 "HgN/A
4:50 PM73 °FBroken clouds.15 mph53%29.98 "HgN/A
4:20 PM70 °FPartly sunny.6 mph69%29.98 "HgN/A
3:50 PM70 °FBroken clouds.6 mph69%30.01 "HgN/A
3:20 PM68 °FSunny.5 mph83%30.01 "Hg10 mi
2:50 PM66 °FLight rain. Clear.5 mph83%30.01 "HgN/A
2:20 PM64 °FLight rain. Broken clouds.7 mph88%30.01 "HgN/A
1:50 PM64 °FLight rain. Partly sunny.9 mph83%30.04 "HgN/A
1:20 PM64 °FLight rain. Broken clouds.8 mph88%30.04 "HgN/A
12:50 PM66 °FLight rain. Partly sunny.12 mph78%30.01 "HgN/A
12:20 PM68 °FPartly sunny.15 mph64%30.01 "HgN/A
11:50 AM70 °FPartly sunny.13 mph60%30.01 "HgN/A
11:20 AM72 °FBroken clouds.12 mph57%30.01 "HgN/A
Weather by CustomWeather, © 2014

See weather overviewHow to use our weather pages